AKDT,Max TemperatureF,Mean TemperatureF,Min TemperatureF,Max Dew PointF,MeanDew PointF,Min DewpointF,Max Humidity, Mean Humidity, Min Humidity, Max Sea Level PressureIn, Mean Sea Level PressureIn, Min Sea Level PressureIn, Max VisibilityMiles, Mean VisibilityMiles, Min VisibilityMiles, Max Wind SpeedMPH, Mean Wind SpeedMPH, Max Gust SpeedMPH,PrecipitationIn, CloudCover, Events, WindDirDegrees
2013-10-1,45,31,17,27,24,17,0,0,0,29.94,29.88,29.77,10,10,10,17,7,22,0.00,1,,8
2013-10-2,53,37,20,35,27,18,0,0,0,29.76,29.66,29.56,10,10,10,21,8,30,0.00,2,,47
2013-10-3,51,43,35,36,31,29,0,0,0,29.55,29.48,29.41,10,10,10,23,14,29,0.00,4,,5
2013-10-4,45,42,39,35,33,29,0,0,0,29.85,29.77,29.54,10,10,10,14,10,16,T,7,,317
2013-10-5,47,42,37,45,40,34,0,0,0,29.84,29.65,29.55,10,9,5,22,9,29,0.13,7,Rain,165
2013-10-6,47,43,39,45,43,39,0,0,0,29.76,29.72,29.64,10,8,4,18,10,24,0.26,8,Rain,200
2013-10-7,54,51,47,48,45,43,0,0,0,29.77,29.63,29.16,10,7,2,43,20,56,0.25,8,Rain,161
2013-10-8,48,45,42,50,42,35,0,0,0,29.49,29.22,29.12,10,9,4,30,19,43,0.06,7,Rain,227
2013-10-9,47,44,40,45,40,34,0,0,0,29.82,29.75,29.54,10,9,2,29,12,37,0.03,6,Rain,223
2013-10-10,49,46,42,48,45,40,0,0,0,29.66,29.55,29.51,10,7,2,13,8,17,0.50,8,Rain,182
2013-10-11,52,46,40,44,42,40,0,0,0,29.70,29.62,29.39,10,9,2,26,12,36,0.14,8,Rain,152
2013-10-12,51,47,43,48,44,37,0,0,0,29.37,29.33,29.25,10,8,2,30,15,43,0.51,7,Rain,134
2013-10-13,52,46,39,41,38,35,0,0,0,29.63,29.38,29.28,10,10,10,24,9,29,T,6,Rain,136
2013-10-14,50,44,38,43,41,39,0,0,0,29.83,29.79,29.65,10,10,7,29,14,36,T,7,,176
2013-10-15,56,52,47,50,47,40,0,0,0,29.91,29.76,29.67,10,10,7,41,24,52,0.11,8,Rain,153
2013-10-16,53,49,45,50,45,37,0,0,0,29.94,29.84,29.73,10,9,5,38,14,53,0.54,7,Rain,128
2013-10-17,53,50,47,49,48,47,0,0,0,29.73,29.62,29.48,10,10,7,21,7,25,0.72,8,Rain,114
2013-10-18,53,48,42,48,44,38,0,0,0,29.53,29.39,29.21,10,8,2,48,23,64,0.17,7,Rain,167
2013-10-19,49,46,42,45,41,37,0,0,0,29.55,29.31,29.15,10,9,6,29,16,40,0.20,6,Rain-Thunderstorm,178
2013-10-20,48,43,37,43,40,35,0,0,0,29.82,29.70,29.58,10,10,7,23,10,29,0.11,7,Rain,165
2013-10-21,43,38,32,40,36,33,0,0,0,30.04,29.87,29.77,10,10,10,18,6,24,0.08,5,Rain,152
2013-10-22,47,37,26,36,32,26,0,0,0,30.09,30.04,29.92,10,10,10,14,7,17,0.00,1,,85
2013-10-23,47,36,25,36,30,25,0,0,0,29.91,29.74,29.47,10,10,10,25,6,32,0.00,6,,57
2013-10-24,50,47,43,43,38,32,0,0,0,29.44,29.25,29.07,10,10,2,36,26,48,0.04,5,Rain,128
2013-10-25,51,41,30,39,36,30,0,0,0,30.11,29.79,29.45,10,10,10,24,13,32,0.00,3,,163
2013-10-26,50,38,25,43,31,24,0,0,0,30.19,30.02,29.76,10,10,5,36,13,47,0.27,6,Rain,90
2013-10-27,52,48,44,47,42,39,0,0,0,29.78,29.59,29.23,10,10,6,25,21,33,0.33,8,Rain,88
2013-10-28,46,41,36,48,43,36,0,0,0,29.52,29.32,29.21,10,9,1,18,10,24,T,6,Rain,203
2013-10-29,44,38,32,39,37,32,0,0,0,29.53,29.34,28.99,10,10,10,20,5,29,0.02,6,Rain,43
2013-10-30,44,42,39,39,38,36,0,0,0,29.26,28.99,28.87,10,10,10,20,9,25,0.05,8,Rain,345
2013-10-31,40,37,33,39,37,33,0,0,0,29.78,29.49,29.28,10,9,2,12,4,14,0.11,8,Rain,273